Regional Weather Roundup
Issued by NWS State College, PA

Home | Current Version | Previous Version | Text Only | Print | Product List | Glossary Off
Versions: 1 2 3 4 5 6 7 8 9 10 11 12 13 14 15 16 17 18 19 20 21 22 23 24 25 26 27 28 29 30 31 32 33 34 35 36 37 38 39 40 41 42 43 44 45 46 47 48 49 50

000
ASUS41 KCTP 050510
RWRCTP

REGIONAL WEATHER ROUNDUP
NATIONAL WEATHER SERVICE STATE COLLEGE PA
1200 AM EST THU MAR 05 2015

Note: "fair" indicates few or no clouds below 12,000 feet with no
significant weather and/or obstructions to visibility.

* = STATION THAT DOES NOT REPORT PRECIPITATION /E.G. RAIN...SNOW...ETC/
    THUNDER OR FOG.

PAZ002>004-007>009-013>016-020>023-029>032-050600-
WESTERN PENNSYLVANIA

CITY           SKY/WX    TMP DP  RH WIND       PRES   REMARKS
ERIE           CLOUDY    24  12  60 NW14G23   30.13R WCI  12
MEADVILLE      CLOUDY    25  13  60 NW14G25   30.06R WCI  13
FRANKLIN*      CLOUDY    27  12  54 NW7G17    30.04S
NEW CASTLE     FAIR      27  17  65 NW12G23   30.10R
BEAVER COUNTY  NOT AVBL
BUTLER*        CLOUDY    28  27  93 NW6       30.06R VSB 1
PITTSBURGH INT LGT SNOW  28  26  92 NW12      30.05S VSB 1
PITTSBURGH     SNOW      28  24  85 NW9       30.04S VSB 1/2
INDIANA*       FOG       30  30 100 W7        30.05R VSB 1
LATROBE        LGT SNOW  30  30 100 NW8       30.05S VSB 1
WASHINGTON CO* CLOUDY    28  27  93 NW3       30.07S
$$

PAZ004>006-010>012-017>019-024>028-033>037-041-042-045-046-049>053-050600-
CENTRAL PENNSYLVANIA

CITY           SKY/WX    TMP DP  RH WIND       PRES   REMARKS
BRADFORD       CLOUDY    26  17  68 NW14      29.94R WCI  14
DUBOIS         LGT SNOW  27  23  85 W9G20     29.98R VSB 1
CLEARFIELD     LGT SNOW  30  24  78 W9        29.98R
JOHNSTOWN      LGT SNOW  27  25  92 NW12      29.93S VSB 1
ALTOONA        LGT SNOW  33  29  85 W12       29.97R FOG
STATE COLLEGE  CLOUDY    32  26  79 NW7       29.97R
WILLIAMSPORT   CLOUDY    36  28  73 W9        29.95F
SELINSGROVE    LGT RAIN  38  30  73 W9        29.97F
FT INDIANTOWN  LGT RAIN  36  32  87 W6        29.94F
CAPITAL CITY   LGT RAIN  35  33  92 W6        29.96F FOG
HARRISBURG     SLEET     34  32  92 NW7       29.95F
YORK           LGT RAIN  36  35  96 N6        29.95F
$$

PAZ038>040-043-044-047-048-054-055-060>062-067>071-050600-
EASTERN PENNSYLVANIA

CITY           SKY/WX    TMP DP  RH WIND       PRES   REMARKS
SCRANTON       LGT SNOW  34  31  88 NW7       29.91S VSB 3/4
MOUNT POCONO   LGT SNOW  33  30  88 W10       29.84F FOG
ALLENTOWN      LGT RAIN  36  32  85 W7        29.93F FOG
QUAKERTOWN*    CLOUDY    37  36  93 NW3       29.93F
READING        RAIN      36  33  89 NW9       29.94S
LANCASTER      LGT RAIN  35  33  92 NW6       29.94F
COATESVILLE    LGT RAIN  37  37 100 NW8       29.93F
POTTSTOWN      LGT RAIN  36  36 100 NW7       29.94F
BLUE BELL      CLOUDY    39  37  93 NW3       29.93S
DOYLESTOWN     LGT RAIN  37  36  96 NW6       29.92S
WILLOW GROVE   NOT AVBL
NORTH PHILA    LGT RAIN  42  37  82 NW8       29.95R
PHILADELPHIA   LGT RAIN  40  38  93 NW6       29.94F FOG
$$



USA.gov is the U.S. government's official web portal to all federal, state and local government web resources and services.